Flag for Syria Weather past 2 weeks in Damascus, Syria

Now
37 °F

Clear.


Feels Like: 37 °F
Forecast: 35 / 60 °F
Wind: No wind

Location: Damascus Int. Airport

Current Time: Dec 28, 2014 at 6:36:56 AM

Latest Report: Dec 28, 2014 at 6:00 AM


Visibility: 10 mi

Pressure: 30.09 "Hg

Humidity: 81%

Dew point: 32 °F

Location of DamascusLocation

Historic Weather in Damascus — Graph

°F

Damascus temperature yesterday

Maximum temperature yesterday: 59 °F (at 2:00 PM)
Minimum temperature yesterday: 36 °F (at 4:00 AM)
Average temperature yesterday: 45 °F

Past Weeks' High & Low Weather Summary

 TemperatureHumidityPressure
High75 °F (Dec 16, 1:00 PM)100% (Dec 15, 12:00 AM)32.55 "Hg (Dec 15, 12:00 AM)
Low30 °F (Dec 24, 3:00 AM)29% (Dec 16, 1:00 PM)29.95 "Hg (Dec 22, 5:00 PM)
Average47 °F80%30.17 "Hg
* Reported Dec 13 5:00 AM — Dec 28 5:00 AM, Damascus, Weather by CustomWeather, © 2014

Note: Actual official high and low records may vary slightly from our data, if they occured in-between our weather recording intervals... More about our weather records

Advertising

Damascus weather history for previous 24 hours

 ConditionsComfort  
Time TempWeatherWind HumidityBarometerVisibility
5:00 AM
Dec 28
37 °FClear.No wind81%30.07 "Hg10 mi
4:00 AM37 °FClear.No wind81%30.07 "Hg10 mi
3:00 AM37 °FClear.No wind87%30.07 "Hg10 mi
2:00 AM36 °FClear.No wind87%30.07 "Hg10 mi
1:00 AM36 °FClear.No wind81%30.07 "Hg10 mi
12:00 AM37 °FClear.No wind81%30.07 "Hg10 mi
11:00 PM
Dec 27
39 °FClear.No wind87%30.07 "Hg10 mi
9:00 PM43 °FClear.No wind81%30.07 "Hg10 mi
8:00 PM43 °FClear.No wind71%30.07 "Hg10 mi
7:00 PM46 °FClear.No wind71%30.04 "Hg10 mi
6:00 PM50 °FClear.No wind71%30.04 "Hg10 mi
5:00 PM55 °FPassing clouds.No wind63%30.04 "HgN/A
2:00 PM59 °FSunny.No wind51%30.04 "Hg10 mi
1:00 PM57 °FSunny.No wind55%30.04 "Hg10 mi
12:00 PM55 °FSunny.No wind55%30.07 "Hg10 mi
11:00 AM52 °FSunny.No wind58%30.09 "Hg10 mi
10:00 AM50 °FSunny.No wind62%30.12 "Hg10 mi
9:00 AM45 °FSunny.No wind66%30.09 "Hg10 mi
8:00 AM37 °FSunny.No wind81%30.09 "Hg10 mi
7:00 AM36 °FSunny.No wind81%30.07 "Hg10 mi
6:00 AM36 °FClear.No wind87%30.07 "Hg10 mi
Weather by CustomWeather, © 2014

See weather overviewHow to use our weather pages